Weather History for KTOI - February, 2013

Change the Weather History Date:

Wednesday, February 6, 2013

  Actual Average Record
Temperature  
Mean Temperature 60 °F 48 °F  
Max Temperature 73 °F 60 °F 73 °F (2013)
Min Temperature 47 °F 36 °F 23 °F (2015)
Degree Days  
Heating Degree Days 5 17  
Month to date heating degree days 97 103  
Since 1 July heating degree days 1294 1595  
Growing Degree Days 10 (Base 50)    
Moisture  
Dew Point 50 °F    
Average Humidity 72    
Maximum Humidity 100    
Minimum Humidity 44    
Precipitation  
Precipitation 0.00 in 0.15 in 1.87 in (2002)
Month to date precipitation 0.08 0.92  
Year to date precipitation 3.22 5.47  
Snow  
Snow 0.00 in - - ()
Month to date snowfall 0.0  
Since 1 July snowfall 0.0  
Snow Depth 0.00 in    
Sea Level Pressure  
Sea Level Pressure 30.10 in    
Wind  
Wind Speed 2 mph (East)    
Max Wind Speed 8 mph    
Max Gust Speed 12 mph    
Visibility 4 miles    
Events Fog    
T = Trace of Precipitation, MM = Missing Value Source: NWS Daily Summary

Daily Weather History Graph

Daily Weather History Graph

Search for Another Location

Airport or City:

Trip Planner

Search our weather history database for the weather conditions in past years. The results will help you decide how hot, cold, wet, or windy it might be!

Date:

Astronomy

Feb. 06, 2013 Rise Set
Actual Time 6:33 AM CST 5:23 PM CST
Civil Twilight 6:08 AM CST 5:48 PM CST
Nautical Twilight 5:39 AM CST 6:17 PM CST
Astronomical Twilight 5:10 AM CST 6:45 PM CST
Moon 3:09 AM CST (2/6) 1:47 PM CST (2/6)
Length of Visible Light 11h 40m
Length of Day
10h 49m
Waning Crescent, 17% of the Moon is Illuminated
Feb 6
Waning Crescent
Feb 10
New
Feb 17
First Quarter
Feb 25
Full
Mar 4
Last Quarter

Hourly Weather History & Observations

Time (CST) Temp. Dew Point Humidity Pressure Visibility Wind Dir Wind Speed Gust Speed Precip Events Conditions
12:53 AM 48.9 °F 48.9 °F 100% 30.07 in 0.2 mi Calm Calm - N/A Fog Fog
1:53 AM 50.0 °F 48.9 °F 96% 30.07 in 0.2 mi Calm Calm - N/A Fog Fog
2:53 AM 50.0 °F 48.9 °F 96% 30.07 in 0.2 mi SE 3.5 mph - N/A Fog Fog
3:03 AM 50.0 °F 48.2 °F 94% 30.08 in 0.2 mi Calm Calm - N/A Fog Fog
3:20 AM 50.0 °F 48.2 °F 94% 30.08 in 0.2 mi Calm Calm - N/A Fog Fog
3:53 AM 48.0 °F 48.0 °F 100% 30.08 in 0.2 mi Calm Calm - N/A Fog Fog
4:53 AM 48.9 °F 48.0 °F 97% 30.10 in 0.2 mi Calm Calm - N/A Fog Fog
5:37 AM 48.2 °F 46.4 °F 93% 30.11 in 0.2 mi Calm Calm - N/A Fog Fog
5:53 AM 46.9 °F 46.9 °F 100% 30.11 in 0.2 mi Calm Calm - N/A Fog Fog
6:53 AM 46.9 °F 46.0 °F 97% 30.14 in 0.2 mi Calm Calm - 0.01 in Fog Fog
7:53 AM 48.0 °F 48.0 °F 100% 30.15 in 0.2 mi NNE 3.5 mph - N/A Fog Fog
8:53 AM 51.1 °F 51.1 °F 100% 30.16 in 0.1 mi Calm Calm - N/A Fog Fog
9:34 AM 55.4 °F 53.6 °F 94% 30.16 in 1.0 mi Variable 3.5 mph - N/A   Overcast
9:40 AM 55.4 °F 53.6 °F 94% 30.16 in 2.0 mi Calm Calm - N/A   Mostly Cloudy
9:53 AM 57.0 °F 55.0 °F 93% 30.16 in 3.0 mi ESE 3.5 mph - N/A   Mostly Cloudy
9:59 AM 55.4 °F 53.6 °F 94% 30.16 in 5.0 mi Calm Calm - N/A   Partly Cloudy
10:53 AM 64.9 °F 54.0 °F 68% 30.16 in 5.0 mi NE 5.8 mph - N/A   Haze
11:53 AM 68.0 °F 52.0 °F 56% 30.14 in 10.0 mi ESE 4.6 mph - N/A   Clear
12:53 PM 69.1 °F 51.1 °F 53% 30.10 in 10.0 mi SE 4.6 mph - N/A   Scattered Clouds
1:53 PM 73.0 °F 52.0 °F 48% 30.09 in 10.0 mi North 4.6 mph - N/A   Mostly Cloudy
2:53 PM 70.0 °F 50.0 °F 49% 30.09 in 10.0 mi Calm Calm - N/A   Clear
3:53 PM 71.1 °F 48.9 °F 45% 30.06 in 10.0 mi SE 3.5 mph - N/A   Partly Cloudy
4:53 PM 70.0 °F 48.9 °F 47% 30.06 in 10.0 mi ENE 3.5 mph - N/A   Partly Cloudy
5:53 PM 61.0 °F 48.9 °F 64% 30.07 in 10.0 mi Calm Calm - N/A   Clear
6:53 PM 57.9 °F 50.0 °F 75% 30.09 in 10.0 mi Calm Calm - N/A   Partly Cloudy
7:53 PM 55.0 °F 50.0 °F 83% 30.10 in 9.0 mi Calm Calm - N/A   Clear
8:53 PM 51.1 °F 48.9 °F 92% 30.09 in 8.0 mi Calm Calm - N/A   Clear
9:53 PM 50.0 °F 46.9 °F 89% 30.08 in 6.0 mi Calm Calm - N/A   Clear
10:53 PM 50.0 °F 46.9 °F 89% 30.06 in 6.0 mi Calm Calm - N/A   Clear
11:53 PM 53.1 °F 50.0 °F 89% 30.09 in 5.0 mi NW 4.6 mph - N/A   Clear